Location: Austin
(30.3000°N, 97.7500°W)
Time: 12:19:33
(UTC-05:00)

Helios 1A Rocket - Pass Details

Date: 18 May 2026
Orbit: 399 x 409 km, 98.3° (Epoch: 11 June)

Event Time Altitude Azimuth Distance (km) Brightness Sun altitude
Rises 22:07:34 0° 356° (N) 2,315 6.7 -20.6°
Reaches altitude 10° 22:09:48 10° 341° (NNW) 1,451 5.8 -21.0°
Maximum altitude 22:12:17 22° 287° (WNW) 918 4.7 -21.4°
Drops below altitude 10° 22:14:45 10° 233° (SW) 1,442 5.1 -21.8°
Enters shadow 22:15:23 - 227° (SW) 1,674 5.4 -21.9°
